Powrót do katalogu

STARLINK-34328

AktywnyŁącznośćVLEO
NORAD 64220·PAYLOAD·🇺🇸 United States

Wystrzelony May 31, 2025 z Vandenberg Space Force Base

Loading…

Następne Przeloty (najbliższe 24 godziny)

TLE

ŚwieżeSource: CelesTrak SupGP

Epoka: Sep 14, 2026, 22:37 UTC

1 64220C 25117T   26257.94284722  .00032427  00000+0  95788-3 0  2574
2 64220  53.1582 237.6286 0001363  93.7730 217.4293 15.34380660    11

Śledź STARLINK-34328 w czasie rzeczywistym z AllMySat

Download on the App Store